Beverly, MA

8:22 PM EDT on March 25, 2017 (GMT -0400)
Beverly Municipal

Weather History for KBVY - February, 2013

Change the Weather History Date:

Wednesday, February 27, 2013

  Actual Average Record
Temperature  
Mean Temperature 39 °F -  
Max Temperature 41 °F 36 °F 59 °F (2009)
Min Temperature 37 °F 20 °F 1 °F (2003)
Degree Days  
Heating Degree Days 26    
Moisture  
Dew Point 36 °F    
Average Humidity 88    
Maximum Humidity 97    
Minimum Humidity 70    
Precipitation  
Precipitation 1.47 in - - ()
Sea Level Pressure  
Sea Level Pressure 29.79 in    
Wind  
Wind Speed 13 mph (ENE)    
Max Wind Speed 24 mph    
Max Gust Speed 34 mph    
Visibility 4 miles    
Events Rain    
Averages and records for this station are not official NWS values.
T = Trace of Precipitation, MM = Missing Value Source: NWS Daily Summary

Daily Weather History Graph

Daily Weather History Graph

Search for Another Location

Airport or City:

Trip Planner

Search our weather history database for the weather conditions in past years. The results will help you decide how hot, cold, wet, or windy it might be!

Date:

Astronomy

Feb. 27, 2013 Rise Set
Actual Time 6:22 AM EST 5:31 PM EST
Civil Twilight 5:53 AM EST 5:59 PM EST
Nautical Twilight 5:21 AM EST 6:32 PM EST
Astronomical Twilight 4:48 AM EST 7:04 PM EST
Moon 7:53 PM EST (2/27) 6:52 AM EST (2/27)
Length of Visible Light 12h 05m
Length of Day
11h 09m
Waning Gibbous, 96% of the Moon is Illuminated
Feb 27
Waning Gibbous
Mar 4
Last Quarter
Mar 11
New
Mar 19
First Quarter
Mar 27
Full

Hourly Weather History & Observations

Time (EST) Temp. Windchill Dew Point Humidity Pressure Visibility Wind Dir Wind Speed Gust Speed Precip Events Conditions
12:53 AM 37.9 °F 32.1 °F 28.9 °F 70% 30.14 in 10.0 mi East 8.1 mph - N/A   Overcast
1:53 AM 39.0 °F 34.0 °F 32.0 °F 76% 30.10 in 10.0 mi East 6.9 mph - N/A   Overcast
2:53 AM 39.0 °F 31.4 °F 33.1 °F 79% 30.09 in 10.0 mi East 12.7 mph 16.1 mph N/A   Overcast
3:53 AM 39.0 °F 32.3 °F 33.1 °F 79% 30.07 in 10.0 mi ENE 10.4 mph - 0.00 in Rain Light Rain
4:53 AM 39.0 °F 31.8 °F 35.1 °F 86% 30.05 in 4.0 mi ENE 11.5 mph - 0.07 in Rain Rain
5:11 AM 39.2 °F 33.0 °F 35.6 °F 87% 30.05 in 5.0 mi ENE 9.2 mph - 0.05 in Rain Light Rain
5:41 AM 39.2 °F 32.0 °F 37.4 °F 93% 30.03 in 6.0 mi ENE 11.5 mph - 0.10 in Rain Rain
5:53 AM 39.9 °F 32.9 °F 37.0 °F 89% 30.01 in 7.0 mi ENE 11.5 mph 19.6 mph 0.11 in Rain Light Rain
6:49 AM 41.0 °F 33.1 °F 37.4 °F 87% 29.99 in 7.0 mi East 15.0 mph 21.9 mph 0.03 in Rain Light Rain
6:53 AM 41.0 °F 33.5 °F 37.0 °F 86% 29.98 in 6.0 mi East 13.8 mph - 0.03 in Rain Light Rain
7:53 AM 41.0 °F 31.9 °F 37.0 °F 86% 29.96 in 5.0 mi East 19.6 mph 26.5 mph 0.05 in Rain Light Rain
8:53 AM 41.0 °F 33.1 °F 37.0 °F 86% 29.93 in 4.0 mi East 15.0 mph 26.5 mph 0.08 in Rain Light Rain
9:53 AM 41.0 °F 31.6 °F 37.4 °F 87% 29.91 in 5.0 mi East 20.7 mph 32.2 mph N/A Rain Light Rain
10:53 AM 41.0 °F 31.9 °F 37.9 °F 89% 29.87 in 4.0 mi East 19.6 mph 29.9 mph 0.10 in Rain Light Rain
11:22 AM 41.0 °F 32.2 °F 37.4 °F 87% 29.86 in 1.8 mi East 18.4 mph 29.9 mph 0.02 in Rain Rain
11:43 AM 41.0 °F 31.6 °F 37.4 °F 87% 29.85 in 2.5 mi East 20.7 mph 32.2 mph 0.05 in Rain Rain
11:53 AM 41.0 °F 31.1 °F 37.9 °F 89% 29.83 in 3.0 mi East 23.0 mph 29.9 mph 0.07 in Rain Light Rain
12:05 PM 41.0 °F 31.9 °F 37.4 °F 87% 29.82 in 4.0 mi East 19.6 mph 33.4 mph 0.01 in Rain Light Rain
12:53 PM 41.0 °F 31.9 °F 37.0 °F 86% 29.79 in 3.0 mi East 19.6 mph 34.5 mph 0.05 in Rain Rain
1:38 PM 39.2 °F 30.2 °F 37.4 °F 93% 29.78 in 2.5 mi East 17.3 mph 34.5 mph 0.05 in Rain Rain
1:53 PM 39.9 °F 30.0 °F 36.0 °F 86% 29.77 in 2.5 mi East 21.9 mph 31.1 mph 0.09 in Rain Rain
2:33 PM 39.2 °F 28.5 °F 35.6 °F 87% 29.77 in 1.8 mi East 24.2 mph 33.4 mph 0.09 in Rain Rain
2:53 PM 39.0 °F 30.6 °F 35.1 °F 86% 29.76 in 2.0 mi ENE 15.0 mph 27.6 mph 0.14 in Rain Rain
3:05 PM 39.2 °F 30.2 °F 35.6 °F 87% 29.77 in 1.5 mi East 17.3 mph 27.6 mph 0.04 in Rain Rain
3:41 PM 39.2 °F 31.2 °F 35.6 °F 87% 29.75 in 1.5 mi ENE 13.8 mph 24.2 mph 0.10 in Rain Rain
3:51 PM 39.2 °F 31.6 °F 35.6 °F 87% 29.74 in 1.2 mi ENE 12.7 mph 20.7 mph 0.13 in Rain Rain
3:53 PM 37.9 °F 30.5 °F 35.1 °F 89% 29.73 in 1.2 mi ENE 11.5 mph 24.2 mph 0.14 in Rain Rain
4:14 PM 37.4 °F 29.8 °F 35.6 °F 93% 29.74 in 1.2 mi ENE 11.5 mph 20.7 mph 0.08 in Rain Heavy Rain
4:34 PM 37.4 °F 29.3 °F 35.6 °F 93% 29.73 in 2.5 mi ENE 12.7 mph 20.7 mph 0.14 in Rain Rain
4:43 PM 37.4 °F 30.3 °F 35.6 °F 93% 29.72 in 3.0 mi ENE 10.4 mph 19.6 mph 0.16 in Rain Rain
4:50 PM 37.4 °F 29.8 °F 35.6 °F 93% 29.72 in 2.0 mi ENE 11.5 mph 20.7 mph 0.17 in Rain Light Rain
4:53 PM 37.9 °F 30.0 °F 35.1 °F 89% 29.71 in 2.0 mi ENE 12.7 mph 20.7 mph 0.17 in Rain Light Rain
4:59 PM 37.4 °F 29.8 °F 35.6 °F 93% 29.71 in 1.8 mi ENE 11.5 mph 27.6 mph 0.01 in Rain Rain
5:27 PM 39.2 °F 31.6 °F 35.6 °F 87% 29.70 in 2.0 mi ENE 12.7 mph 23.0 mph 0.05 in Rain Light Rain
5:53 PM 39.0 °F 31.8 °F 36.0 °F 89% 29.69 in 2.5 mi ENE 11.5 mph 19.6 mph 0.10 in Rain Light Rain
6:18 PM 39.2 °F 31.6 °F 35.6 °F 87% 29.69 in 3.0 mi ENE 12.7 mph 21.9 mph 0.02 in Rain Light Rain
6:34 PM 39.2 °F 30.8 °F 37.4 °F 93% 29.68 in 2.5 mi NE 15.0 mph 20.7 mph 0.05 in Rain Rain
6:53 PM 39.9 °F 31.8 °F 37.0 °F 89% 29.67 in 2.5 mi ENE 15.0 mph 20.7 mph 0.08 in Rain Light Rain
7:26 PM 39.2 °F 31.6 °F 37.4 °F 93% 29.65 in 2.5 mi NE 12.7 mph 20.7 mph 0.04 in Rain Light Rain
7:53 PM 39.9 °F 32.1 °F 37.9 °F 93% 29.62 in 2.5 mi NE 13.8 mph 20.7 mph 0.07 in Rain Light Rain
8:53 PM 41.0 °F 34.7 °F 37.9 °F 89% 29.59 in 2.0 mi NE 10.4 mph 18.4 mph 0.05 in Rain Light Rain
9:28 PM 41.0 °F 35.8 °F 39.2 °F 93% 29.58 in 2.5 mi NNE 8.1 mph - 0.04 in Rain Light Rain
9:53 PM 41.0 °F 35.2 °F 39.0 °F 93% 29.56 in 3.0 mi NNE 9.2 mph - 0.06 in Rain Light Rain
10:13 PM 41.0 °F 34.7 °F 39.2 °F 93% 29.55 in 2.5 mi NNE 10.4 mph - 0.01 in Rain Light Rain
10:26 PM 41.0 °F 35.2 °F 39.2 °F 93% 29.55 in 3.0 mi North 9.2 mph - 0.01 in Rain Light Rain
10:53 PM 41.0 °F 36.4 °F 39.0 °F 93% 29.53 in 3.0 mi North 6.9 mph - 0.01 in   Overcast
11:21 PM 41.0 °F 36.4 °F 39.2 °F 93% 29.53 in 2.5 mi NNW 6.9 mph - N/A   Overcast
11:53 PM 39.9 °F 33.9 °F 39.0 °F 97% 29.53 in 3.0 mi NNW 9.2 mph - N/A   Overcast